Driggs, ID

6:27 PM MDT on October 18, 2017 (GMT -0600)
Driggs

Weather History for KDIJ - November, 2013

Change the Weather History Date:

Friday, November 29, 2013

  Actual Average (KJAC) Record (KJAC)
Temperature  
Mean Temperature 32 °F -  
Max Temperature 43 °F 30 °F 45 °F (1986)
Min Temperature 21 °F 7 °F -13 °F (1981)
Degree Days  
Heating Degree Days 33    
Moisture  
Dew Point 22 °F    
Average Humidity 75    
Maximum Humidity 88    
Minimum Humidity 44    
Precipitation  
Precipitation 0.00 in - - ()
Sea Level Pressure  
Sea Level Pressure 30.24 in    
Wind  
Wind Speed 3 mph (East)    
Max Wind Speed 9 mph    
Max Gust Speed -    
Visibility 9 miles    
Events Rain    
Averages and records for this station are not official NWS values.
T = Trace of Precipitation, MM = Missing Value Source: NWS Daily Summary

Daily Weather History Graph

Daily Weather History Graph

Search for Another Location

Airport or City:

Trip Planner

Search our weather history database for the weather conditions in past years. The results will help you decide how hot, cold, wet, or windy it might be!

Date:

Astronomy

Nov. 29, 2013 Rise Set
Actual Time 7:36 AM MST 4:49 PM MST
Civil Twilight 7:04 AM MST 5:21 PM MST
Nautical Twilight 6:28 AM MST 5:56 PM MST
Astronomical Twilight 5:53 AM MST 6:31 PM MST
Moon 3:39 AM MST (11/29) 2:41 PM MST (11/29)
Length of Visible Light 10h 16m
Length of Day
9h 12m
Waning Crescent, 13% of the Moon is Illuminated
Nov 29
Waning Crescent
Dec 2
New
Dec 9
First Quarter
Dec 17
Full
Dec 25
Last Quarter

Hourly Weather History & Observations

Time (MST) Temp. Windchill Dew Point Humidity Pressure Visibility Wind Dir Wind Speed Gust Speed Precip Events Conditions
12:56 AM 25.2 °F 19.5 °F 21.0 °F 84% 30.15 in 10.0 mi NNE 4.6 mph - N/A   Clear
1:56 AM 25.2 °F - 19.0 °F 78% 30.14 in 10.0 mi Calm Calm - N/A   Clear
2:56 AM 25.2 °F 20.9 °F 19.0 °F 78% 30.18 in 10.0 mi South 3.5 mph - N/A   Clear
3:56 AM 23.0 °F - 19.0 °F 85% 30.19 in 10.0 mi Calm Calm - N/A   Clear
4:56 AM 22.1 °F 15.9 °F 18.1 °F 85% 30.22 in 10.0 mi SE 4.6 mph - N/A   Clear
5:56 AM 22.1 °F - 18.1 °F 85% 30.24 in 10.0 mi Calm Calm - N/A   Clear
6:56 AM 21.0 °F 16.2 °F 17.1 °F 85% 30.26 in 10.0 mi NE 3.5 mph - N/A   Clear
7:56 AM 22.1 °F 17.4 °F 17.1 °F 81% 30.28 in 10.0 mi NE 3.5 mph - N/A   Clear
8:56 AM 29.1 °F - 22.1 °F 75% 30.28 in 9.0 mi Calm Calm - N/A   Clear
9:56 AM 31.1 °F - 23.0 °F 72% 30.28 in 8.0 mi Calm Calm - N/A   Clear
10:56 AM 37.9 °F - 24.1 °F 57% 30.26 in 9.0 mi Calm Calm - N/A   Clear
11:56 AM 39.9 °F - 24.1 °F 53% 30.24 in 9.0 mi Calm Calm - N/A   Clear
12:56 PM 41.0 °F 39.0 °F 27.1 °F 58% 30.23 in 9.0 mi WNW 3.5 mph - N/A   Clear
1:56 PM 43.0 °F 41.3 °F 23.0 °F 45% 30.20 in 8.0 mi SW 3.5 mph - N/A   Clear
2:56 PM 43.9 °F 40.5 °F 23.0 °F 44% 30.19 in 9.0 mi SW 5.8 mph - 0.00 in Rain Light Rain
3:56 PM 37.9 °F 31.5 °F 29.1 °F 71% 30.23 in 8.0 mi NW 9.2 mph - 0.00 in   Clear
4:56 PM 32.9 °F 26.7 °F 27.1 °F 79% 30.26 in 7.0 mi NNE 6.9 mph - N/A   Clear
5:56 PM 31.1 °F 23.7 °F 27.1 °F 85% 30.28 in 8.0 mi NE 8.1 mph - N/A   Clear
6:56 PM 28.0 °F 24.2 °F 23.0 °F 81% 30.30 in 10.0 mi South 3.5 mph - N/A   Clear
7:56 PM 29.1 °F 23.0 °F 25.2 °F 85% 30.30 in 9.0 mi ESE 5.8 mph - N/A   Clear
8:56 PM 28.0 °F 21.7 °F 23.0 °F 81% 30.26 in 10.0 mi ESE 5.8 mph - N/A   Clear
9:56 PM 26.1 °F 20.5 °F 23.0 °F 88% 30.28 in 9.0 mi ESE 4.6 mph - N/A   Clear
10:56 PM 28.0 °F 21.7 °F 23.0 °F 81% 30.25 in 9.0 mi SE 5.8 mph - N/A   Clear
11:56 PM 28.0 °F - 23.0 °F 81% 30.25 in 8.0 mi Calm Calm - N/A   Clear